Weather History for KVPS - July, 2013

Change the Weather History Date:

Thursday, July 25, 2013

  Actual Average Record
Temperature  
Mean Temperature 80 °F -  
Max Temperature 86 °F 89 °F 99 °F (1952)
Min Temperature 73 °F 71 °F 66 °F (1965)
Cooling Degree Days 14    
Growing Degree Days 30 (Base 50)    
Moisture  
Dew Point 74 °F    
Average Humidity 85    
Maximum Humidity 96    
Minimum Humidity 65    
Precipitation  
Precipitation 0.68 in - - ()
Sea Level Pressure  
Sea Level Pressure 29.95 in    
Wind  
Wind Speed 8 mph (NW)    
Max Wind Speed 14 mph    
Max Gust Speed -    
Visibility 9 miles    
Events Rain    
Averages and records for this station are not official NWS values.
T = Trace of Precipitation, MM = Missing Value Source: NWS Daily Summary

Daily Weather History Graph

Daily Weather History Graph

Search for Another Location

Airport or City:

Trip Planner

Search our weather history database for the weather conditions in past years. The results will help you decide how hot, cold, wet, or windy it might be!

Date:

Astronomy

Jul. 25, 2013 Rise Set
Actual Time 6:00 AM CDT 7:44 PM CDT
Civil Twilight 5:33 AM CDT 8:11 PM CDT
Nautical Twilight 5:01 AM CDT 8:43 PM CDT
Astronomical Twilight 4:28 AM CDT 9:16 PM CDT
Moon 9:46 PM CDT (7/25) 9:10 AM CDT (7/25)
Length of Visible Light 14h 37m
Length of Day
13h 44m
Waning Gibbous, 88% of the Moon is Illuminated
Jul 25
Waning Gibbous
Jul 29
Last Quarter
Aug 6
New
Aug 14
First Quarter
Aug 20
Full

Hourly Weather History & Observations

Time (CDT) Temp. Heat Index Dew Point Humidity Pressure Visibility Wind Dir Wind Speed Gust Speed Precip Events Conditions
12:37 AM 77.0 °F - 69.8 °F 78% 29.90 in 10.0 mi WNW 12.7 mph - N/A Rain Light Rain
12:55 AM 75.9 °F - 70.7 °F 84% 29.91 in 10.0 mi WNW 11.5 mph - 0.00 in Rain Light Rain
1:48 AM 73.4 °F - 71.6 °F 94% 29.87 in 10.0 mi NW 10.4 mph - N/A   Mostly Cloudy
1:55 AM 73.9 °F - 71.1 °F 91% 29.89 in 10.0 mi NW 6.9 mph - 0.00 in   Mostly Cloudy
2:55 AM 73.6 °F - 70.9 °F 91% 29.89 in 10.0 mi NW 4.6 mph - N/A   Mostly Cloudy
3:55 AM 74.5 °F - 70.2 °F 86% 29.91 in 10.0 mi NNW 4.6 mph - N/A   Mostly Cloudy
4:55 AM 74.1 °F - 70.7 °F 89% 29.92 in 10.0 mi WNW 4.6 mph - N/A   Mostly Cloudy
5:55 AM 73.9 °F - 70.9 °F 90% 29.93 in 10.0 mi NW 5.8 mph - N/A   Mostly Cloudy
6:55 AM 74.8 °F - 70.9 °F 87% 29.94 in 10.0 mi NW 9.2 mph - N/A   Mostly Cloudy
7:06 AM 75.2 °F - 71.6 °F 89% 29.93 in 7.0 mi NW 12.7 mph - N/A Rain Light Rain
7:15 AM 75.2 °F - 71.6 °F 89% 29.94 in 1.0 mi North 11.5 mph - N/A Rain Heavy Rain
7:35 AM 75.2 °F - 73.4 °F 94% 29.93 in 7.0 mi North 11.5 mph - N/A Rain Light Rain
7:48 AM 75.2 °F - 73.4 °F 94% 29.94 in 9.0 mi North 8.1 mph - N/A   Mostly Cloudy
7:55 AM 74.8 °F - 73.4 °F 95% 29.96 in 9.0 mi North 8.1 mph - 0.25 in   Overcast
8:16 AM 75.2 °F - 73.4 °F 94% 29.95 in 4.0 mi NW 11.5 mph - N/A Rain Light Rain
8:55 AM 74.8 °F - 73.8 °F 96% 29.97 in 6.0 mi NNW 6.9 mph - 0.11 in Rain Light Rain
9:10 AM 75.2 °F - 73.4 °F 94% 29.95 in 7.0 mi North 5.8 mph - N/A   Overcast
9:34 AM 75.2 °F - 73.4 °F 94% 29.95 in 8.0 mi NW 5.8 mph - N/A   Light Drizzle
9:55 AM 76.5 °F - 73.9 °F 92% 29.97 in 8.0 mi NNW 4.6 mph - 0.01 in   Overcast
10:55 AM 81.0 °F 86.3 °F 74.1 °F 80% 29.99 in 10.0 mi NNW 4.6 mph - N/A   Mostly Cloudy
11:55 AM 84.9 °F 90.7 °F 72.1 °F 65% 29.99 in 10.0 mi North 2.3 mph - N/A   Mostly Cloudy
12:09 PM 84.2 °F 92.3 °F 75.2 °F 74% 29.98 in 10.0 mi SSE 5.8 mph - N/A   Mostly Cloudy
12:21 PM 86.0 °F 96.9 °F 77.0 °F 74% 29.94 in 10.0 mi North 4.6 mph - N/A Rain Light Rain Showers
12:37 PM 82.4 °F 89.5 °F 75.2 °F 79% 29.99 in 3.0 mi SW 6.9 mph - N/A Rain Light Rain Showers
12:51 PM 78.8 °F - 73.4 °F 83% 29.98 in 7.0 mi SW 5.8 mph - N/A   Mostly Cloudy
12:55 PM 78.8 °F - 75.0 °F 88% 30.00 in 7.0 mi SW 8.1 mph - 0.30 in   Mostly Cloudy
1:44 PM 82.4 °F 90.9 °F 77.0 °F 84% 29.97 in 10.0 mi SSW 9.2 mph - N/A   Mostly Cloudy
1:55 PM 84.0 °F 93.3 °F 76.6 °F 78% 29.99 in 10.0 mi SSW 10.4 mph - N/A   Mostly Cloudy
2:55 PM 86.2 °F 95.5 °F 75.6 °F 70% 29.98 in 10.0 mi SW 10.4 mph - N/A   Mostly Cloudy
3:55 PM 86.2 °F 95.5 °F 75.6 °F 70% 29.96 in 10.0 mi SW 13.8 mph - N/A   Mostly Cloudy
4:55 PM 86.0 °F 96.4 °F 76.6 °F 73% 29.96 in 10.0 mi SW 8.1 mph - N/A   Scattered Clouds
5:21 PM 86.0 °F 96.9 °F 77.0 °F 74% 29.94 in 10.0 mi North 4.6 mph - N/A Rain Light Rain Showers
5:37 PM 82.4 °F 92.4 °F 78.8 °F 89% 29.94 in 10.0 mi South 4.6 mph - N/A   Mostly Cloudy
5:55 PM 83.1 °F 94.0 °F 79.0 °F 87% 29.95 in 10.0 mi South 9.2 mph - 0.01 in   Mostly Cloudy
6:55 PM 84.9 °F 97.5 °F 78.8 °F 82% 29.96 in 10.0 mi Calm Calm - N/A   Scattered Clouds
7:55 PM 82.9 °F 94.8 °F 80.1 °F 91% 29.96 in 10.0 mi NNW 1.2 mph - N/A   Scattered Clouds
8:55 PM 82.0 °F 90.8 °F 77.9 °F 87% 29.98 in 10.0 mi NW 2.3 mph - N/A   Scattered Clouds
9:55 PM 81.1 °F 87.6 °F 75.7 °F 84% 29.99 in 10.0 mi NNW 2.3 mph - N/A   Partly Cloudy
10:55 PM 80.6 °F 85.9 °F 74.5 °F 82% 30.00 in 10.0 mi Calm Calm - N/A   Partly Cloudy
11:55 PM 78.8 °F - 73.9 °F 85% 30.01 in 10.0 mi Calm Calm - N/A   Partly Cloudy